Dewpoint
56 55 55 55 54 54 55 53 51 51 51 53 52 53 54 51 52 52 54 53 51 50 50 50 49 49 49 48 49 48 49 51 50 51 51 51 51 50 49 47 47 46
57 56 56 55 55 56 55 53 52 51 52 52 53 52 52 52 54 53 52 52 52 52 53 52 52 51 52 52 52 52 51 50 51 55 52 51 50 50 50 49 48 48
57 56 56 55 55 55 53 53 54 52 52 53 52 51 53 53 51 51 52 52 54 54 52 51 50 51 51 50 49 49 49 50 51 51 51 49 49 48 49 48 48 48
56 56 56 56 56 54 54 54 53 53 54 53 52 53 53 53 52 54 55 57 52 49 48 49 51 51 50 50 51 51 51 50 49 50 49 49 51 51 51 50 50 49
58 58 57 56 55 55 55 54 54 53 52 53 53 53 53 53 54 53 53 53 52 52 54 54 52 52 52 50 50 50 52 52 52 50 50 49 49 48 49 48 47 46
58 59 57 55 54 54 54 54 54 53 53 53 53 53 54 54 53 53 53 53 54 53 52 51 52 52 50 50 52 52 51 48 47 47 48 46 46 48 48 48 46 46
58 58 58 56 54 55 55 55 54 53 53 53 54 54 54 54 53 53 54 54 53 53 51 52 53 52 53 55 55 53 50 50 52 50 48 48 49 49 49 47 48 48
59 60 59 58 55 55 55 55 54 54 54 53 53 54 54 54 53 53 53 53 52 52 53 54 54 54 55 55 54 54 53 56 53 49 50 53 50 48 49 50 49 48
58 59 60 60 59 55 55 56 55 55 53 53 54 54 54 53 53 53 52 52 52 52 52 53 54 54 56 54 54 53 54 54 55 52 52 53 52 50 47 51 50 50
57 58 59 60 60 60 56 56 56 55 54 54 54 53 53 53 53 52 52 52 52 52 52 53 54 54 56 54 54 55 55 55 55 55 55 56 55 55 54 54 53 52
56 58 58 59 59 60 60 58 57 55 54 53 54 52 53 53 52 52 52 52 53 52 52 53 53 53 55 55 56 55 56 56 56 57 56 56 56 56 57 55 54 54
56 56 57 58 59 59 59 58 58 56 55 54 53 51 52 53 50 51 51 52 52 52 52 55 57 57 57 56 56 57 57 57 57 57 57 56 55 56 55 55 55 55
56 56 57 58 58 58 58 58 57 56 55 53 53 51 51 53 50 51 52 53 53 53 54 57 56 56 57 57 57 57 57 56 57 56 56 55 55 56 56 56 56 56
57 58 58 58 58 58 58 58 57 57 54 54 54 52 51 53 50 55 55 54 56 57 57 56 55 54 56 56 56 57 57 56 55 55 55 54 54 54 55 56 56 56
57 58 58 57 57 57 57 57 57 56 58 58 56 53 52 52 53 57 57 56 56 57 57 56 55 54 54 56 56 57 57 55 55 54 54 54 55 55 55 54 55 56
57 57 57 56 56 56 56 56 56 56 56 58 58 56 57 56 57 57 56 56 57 57 56 55 54 53 51 49 52 56 56 56 56 55 54 54 54 54 54 55 55 55
57 57 57 56 55 56 56 56 56 56 56 56 57 56 56 57 57 56 56 56 56 56 55 54 52 49 43 42 42 48 56 56 56 56 56 55 54 54 54 54 54 55
56 57 56 56 56 55 56 56 56 56 56 56 56 56 56 57 56 56 56 56 56 56 55 53 50 45 40 41 41 43 49 56 56 56 56 55 55 55 54 54 55 55
56 56 56 56 56 56 55 56 55 55 55 55 55 56 56 56 56 56 56 56 56 55 54 52 49 41 40 41 40 40 40 49 57 56 56 55 54 54 54 54 54 55
56 56 56 56 56 55 54 54 54 53 53 54 55 55 55 55 54 55 55 54 54 54 53 52 49 43 40 40 40 39 38 43 54 53 53 52 51 51 51 51 54 54
55 55 55 55 55 55 54 54 53 54 54 53 54 54 54 53 48 53 53 53 54 54 52 51 50 40 39 39 39 39 38 41 52 51 50 48 47 47 48 50 52 50
54 55 54 54 54 54 54 54 53 53 53 53 53 54 53 53 53 53 53 53 54 53 52 50 45 37 38 39 39 40 39 48 52 49 48 47 46 46 48 50 49 47
53 52 53 53 53 53 53 52 53 53 53 54 54 54 54 54 54 53 53 53 53 52 51 49 45 38 37 38 39 38 43 51 50 48 46 45 45 46 48 48 47 45
52 51 50 51 52 52 51 51 52 53 54 54 54 54 53 53 53 53 53 54 53 51 51 50 47 39 37 38 38 38 46 50 49 47 46 45 45 44 45 46 47 46
45 47 50 50 50 51 52 52 52 52 51 51 51 51 51 50 50 52 52 51 50 51 52 50 47 42 38 37 38 36 42 49 49 46 45 45 44 43 42 41 42 43
42 44 44 47 48 49 50 51 50 49 48 49 49 48 48 47 47 50 50 49 49 50 51 49 47 44 40 37 36 36 40 47 48 46 45 44 43 42 40 38 37 37